Total_Precipitation_Accumulation
0.00 0.01 0.01 0.01 0.01 0.02 0.04 0.10 0.21 0.20 0.18 0.25 0.34 0.55 0.75 0.83 0.99 1.29 1.50 1.50 1.46 1.76 2.25 2.64 2.95 3.09 3.44 3.65 3.82 3.82 4.05 4.46 4.79 4.64 4.31 4.13 3.89 3.66 3.43 3.16 3.04 3.06 3.04 3.22
0.00 0.01 0.01 0.01 0.01 0.02 0.04 0.08 0.18 0.20 0.20 0.31 0.45 0.68 0.85 1.05 1.27 1.36 1.29 1.28 1.43 1.81 2.32 2.69 2.97 3.14 3.41 3.69 4.10 4.24 4.43 4.79 4.93 4.78 4.64 4.49 4.35 3.95 3.81 3.65 3.47 3.08 2.89 2.98
0.01 0.01 0.01 0.01 0.02 0.03 0.05 0.10 0.16 0.17 0.25 0.41 0.53 0.96 1.13 1.29 1.41 1.39 1.32 1.53 1.54 1.62 2.05 2.33 2.45 2.65 2.83 2.98 3.24 3.53 4.02 4.54 4.72 4.78 4.69 4.64 4.67 4.19 3.91 3.76 3.57 3.17 2.88 2.78
0.01 0.01 0.01 0.02 0.03 0.03 0.07 0.08 0.09 0.13 0.25 0.53 0.61 1.22 1.42 1.62 1.72 1.59 1.52 1.46 1.45 1.69 2.00 2.01 1.85 2.01 2.27 2.27 2.58 3.00 3.46 3.82 4.05 4.13 4.12 4.16 4.12 4.02 3.93 3.78 3.40 3.14 2.89 2.77
0.02 0.02 0.02 0.04 0.03 0.03 0.06 0.07 0.10 0.15 0.28 0.52 0.55 0.92 1.45 1.81 1.99 1.61 1.51 1.38 1.45 1.67 1.71 1.66 1.68 1.80 1.95 2.11 2.43 2.75 3.07 3.37 3.54 3.63 3.70 3.80 3.70 3.71 3.62 3.44 3.21 2.99 2.82 2.67
0.03 0.04 0.04 0.04 0.04 0.05 0.06 0.10 0.19 0.27 0.48 0.87 0.71 0.83 1.38 1.75 1.61 1.40 1.33 1.12 1.23 1.42 1.51 1.56 1.65 1.78 1.90 2.19 2.55 2.84 3.08 3.30 3.37 3.16 3.06 3.07 3.12 3.19 3.14 2.98 2.81 2.59 2.52 2.42
0.13 0.11 0.08 0.06 0.07 0.08 0.09 0.20 0.66 1.08 1.41 1.31 0.81 0.92 1.51 1.40 1.06 0.99 1.07 1.05 1.04 1.09 1.23 1.35 1.54 1.74 1.91 2.03 2.13 2.57 2.99 3.17 3.07 2.82 2.63 2.56 2.69 2.81 2.73 2.61 2.54 2.44 2.30 2.21
0.28 0.26 0.14 0.10 0.13 0.14 0.14 0.26 0.75 1.05 1.15 1.13 0.91 1.31 1.80 1.39 0.95 0.81 0.91 0.90 0.79 0.75 0.73 0.81 0.99 1.11 1.26 1.30 1.33 1.51 1.79 2.03 2.11 2.01 2.02 2.08 2.12 2.20 2.20 2.39 2.23 2.21 2.13 2.00
0.17 0.16 0.12 0.14 0.18 0.19 0.25 0.30 0.32 0.55 0.76 1.16 1.17 1.37 1.47 1.20 0.95 0.90 0.98 0.89 0.71 0.67 0.63 0.69 0.79 0.85 0.95 0.97 1.02 1.16 1.41 1.65 1.69 1.70 1.76 1.80 1.82 1.86 1.90 1.95 1.91 1.86 1.90 1.86
0.11 0.12 0.13 0.13 0.17 0.20 0.22 0.30 0.45 0.73 0.97 1.13 1.22 1.59 1.75 1.56 1.29 1.12 1.07 0.94 0.72 0.60 0.58 0.65 0.75 0.80 0.90 1.01 1.16 1.28 1.39 1.50 1.50 1.50 1.52 1.47 1.57 1.59 1.64 1.64 1.58 1.58 1.66 1.66
0.09 0.10 0.14 0.20 0.23 0.24 0.25 0.32 0.49 0.67 0.73 0.96 1.34 1.50 1.26 1.23 1.22 1.28 1.23 1.02 0.78 0.60 0.54 0.60 0.72 0.79 0.86 0.99 1.13 1.27 1.36 1.45 1.43 1.39 1.46 1.52 1.53 1.56 1.54 1.51 1.43 1.50 1.56 1.60
0.10 0.12 0.18 0.26 0.23 0.18 0.24 0.34 0.50 0.76 0.80 0.84 1.01 1.17 0.79 0.82 0.94 1.03 1.04 0.83 0.65 0.57 0.55 0.64 0.75 0.80 0.94 1.01 1.07 1.10 1.20 1.33 1.34 1.36 1.49 1.68 1.65 1.65 1.61 1.48 1.42 1.47 1.48 1.51
0.16 0.16 0.29 0.57 0.52 0.29 0.27 0.27 0.37 0.52 0.64 0.73 0.97 1.15 0.75 0.77 0.93 0.94 0.92 0.81 0.73 0.69 0.68 0.75 0.79 0.78 0.89 1.00 1.04 1.05 1.12 1.24 1.41 1.45 1.52 1.65 1.67 1.63 1.53 1.45 1.41 1.42 1.43 1.47
0.14 0.16 0.27 0.65 0.69 0.46 0.33 0.30 0.33 0.46 0.58 0.56 0.60 0.83 0.83 0.82 0.95 0.96 0.96 0.92 0.91 0.80 0.78 0.89 0.96 0.88 0.87 0.90 0.91 0.94 1.07 1.21 1.24 1.25 1.31 1.41 1.37 1.38 1.39 1.40 1.39 1.36 1.42 1.46
0.14 0.18 0.19 0.29 0.40 0.43 0.39 0.32 0.29 0.31 0.35 0.48 0.56 0.75 0.92 0.93 0.97 0.85 0.82 0.84 0.86 0.82 0.78 0.84 0.77 0.71 0.71 0.72 0.74 0.79 0.83 0.95 1.09 1.18 1.24 1.33 1.39 1.39 1.41 1.35 1.29 1.37 1.43 1.40
0.21 0.26 0.24 0.32 0.40 0.45 0.43 0.38 0.31 0.29 0.28 0.35 0.48 0.68 0.75 0.81 0.86 0.89 0.86 0.87 0.82 0.74 0.75 0.69 0.56 0.51 0.54 0.60 0.64 0.69 0.72 0.80 0.93 0.97 1.07 1.30 1.44 1.47 1.42 1.32 1.34 1.40 1.46 1.53
0.32 0.37 0.36 0.40 0.49 0.61 0.63 0.39 0.35 0.36 0.33 0.45 0.71 0.83 0.83 0.96 0.97 0.89 0.83 0.80 0.72 0.65 0.63 0.59 0.51 0.50 0.54 0.60 0.65 0.71 0.78 0.81 0.88 0.95 1.04 1.13 1.26 1.33 1.28 1.21 1.26 1.30 1.39 1.52
0.39 0.55 0.57 0.54 0.71 0.91 0.73 0.43 0.37 0.41 0.40 0.41 0.56 0.67 0.74 0.96 1.02 0.81 0.69 0.68 0.65 0.62 0.56 0.56 0.56 0.58 0.69 0.68 0.72 0.85 0.98 0.99 1.01 1.11 1.18 1.17 1.24 1.36 1.37 1.33 1.35 1.44 1.51 1.54
0.33 0.53 0.61 0.67 0.84 0.86 0.72 0.58 0.51 0.57 0.65 0.48 0.52 0.59 0.66 0.69 0.81 0.86 0.68 0.69 0.69 0.60 0.59 0.59 0.62 0.70 0.83 0.82 0.85 1.00 1.05 1.10 1.14 1.20 1.29 1.34 1.40 1.50 1.55 1.53 1.61 1.69 1.76 1.66
0.42 0.56 0.72 0.70 0.88 1.04 0.85 0.68 0.60 0.70 1.14 0.76 0.58 0.53 0.63 0.68 1.02 1.08 0.80 0.69 0.68 0.67 0.72 0.77 0.76 0.83 0.90 0.97 1.11 1.22 1.26 1.33 1.39 1.36 1.39 1.47 1.61 1.69 1.75 1.92 2.14 2.21 2.21 2.09
0.85 0.88 0.88 0.87 0.94 0.96 0.81 0.66 0.68 1.16 1.42 0.89 0.71 0.61 0.66 0.74 0.88 0.93 0.78 0.69 0.70 0.75 0.87 0.99 1.11 1.17 1.20 1.12 1.22 1.38 1.56 1.64 1.64 1.74 1.78 1.81 1.90 2.01 2.08 2.30 2.48 2.51 2.50 2.58
1.13 1.14 1.10 1.12 1.31 1.34 0.95 0.92 1.13 1.34 1.17 0.98 0.91 0.85 0.74 0.72 0.75 0.85 0.85 0.82 0.81 0.84 0.98 1.08 1.21 1.29 1.34 1.44 1.53 1.59 1.66 1.73 1.82 1.87 1.94 2.04 2.22 2.15 2.21 2.47 2.54 2.65 2.79 2.80
1.14 1.19 1.22 1.30 1.40 1.28 1.13 1.25 1.30 1.19 1.22 1.15 1.00 0.99 0.88 0.82 0.76 0.74 0.78 0.82 0.88 0.88 0.94 1.10 1.16 1.25 1.39 1.51 1.62 1.81 1.89 1.89 1.96 2.04 2.10 2.25 2.44 2.57 2.64 2.79 2.88 2.86 2.84 2.81
1.28 1.12 1.29 1.46 1.55 1.44 1.49 1.45 1.37 1.33 1.29 1.15 0.97 0.98 0.94 0.85 0.77 0.76 0.83 0.86 0.86 0.87 0.92 1.02 1.10 1.24 1.37 1.49 1.67 1.89 1.93 1.86 1.98 2.12 2.17 2.31 2.46 2.55 2.63 2.81 2.87 2.85 2.81 2.81
1.48 1.43 1.68 1.89 1.88 1.89 1.89 1.72 1.48 1.34 1.21 1.11 1.00 0.97 0.93 0.90 0.89 0.83 0.86 0.95 0.87 0.82 0.90 1.02 1.07 1.17 1.29 1.31 1.50 1.72 1.88 1.95 2.11 2.24 2.31 2.44 2.59 2.71 2.80 2.73 2.79 2.84 2.83 2.74
1.59 1.73 1.95 2.14 1.97 1.94 1.99 1.75 1.46 1.40 1.42 1.35 1.32 1.28 1.18 1.09 1.07 0.97 0.88 0.90 0.87 0.85 0.93 1.09 1.14 1.17 1.23 1.26 1.39 1.53 1.77 1.97 2.26 2.30 2.34 2.44 2.54 2.69 2.71 2.70 2.63 2.58 2.47 2.42